FW2545 Weather Reports


Display with metric or nautical units.
time (UTC)temp
F
wind
direction
speed
MPH
gust
MPH
rain 1hr
in
rain 24hr
in
rain mn
in
humidity
%
barometer
mb
20260506223104 76 278 11.0 21.0 0.00 0.00 0.00 42 1018.8
20260506221532 77 304 9.0 18.0 0.00 0.00 0.00 41 1018.9
20260506213029 78 283 7.0 16.0 0.00 0.00 0.00 42 1018.7
20260506211529 78 293 7.0 15.0 0.00 0.00 0.00 42 1018.9
20260506210030 78 292 8.0 16.0 0.00 0.00 0.00 43 1018.9
20260506204603 78 296 8.0 16.0 0.00 0.00 0.00 43 1018.9
20260506201540 77 318 7.0 18.0 0.00 0.00 0.00 47 1019.0
20260506200028 76 307 8.0 19.0 0.00 0.00 0.00 48 1019.0
20260506194603 75 300 9.0 20.0 0.00 0.00 0.00 50 1018.9
20260506191604 73 329 8.0 17.0 0.00 0.00 0.00 53 1019.5
20260506190032 72 309 8.0 18.0 0.00 0.00 0.00 55 1019.3
20260506184608 71 323 8.0 18.0 0.00 0.00 0.00 57 1019.4
20260506181530 69 318 8.0 15.0 0.00 0.00 0.00 61 1019.5
20260506180029 68 317 7.0 16.0 0.00 0.00 0.00 62 1019.4
20260506174529 68 334 5.0 15.0 0.00 0.00 0.00 64 1019.4
20260506173104 67 313 5.0 13.0 0.00 0.00 0.00 65 1019.4
20260506171532 66 1 2.0 8.0 0.00 0.00 0.00 67 1019.4
20260506170105 65 287 3.0 7.0 0.00 0.00 0.00 69 1019.7
20260506164540 64 336 6.0 15.0 0.00 0.00 0.00 72 1019.9
20260506163030 63 190 2.0 6.0 0.00 0.00 0.00 75 1019.9
20260506160114 60 246 1.0 4.0 0.00 0.00 0.00 86 1020.0
20260506154607 57 187 1.0 5.0 0.00 0.00 0.00 90 1019.9
20260506153030 54 173 1.0 4.0 0.00 0.00 0.00 93 1019.9
20260506151604 52 159 2.0 4.0 0.00 0.00 0.00 94 1020.0
20260506150028 49 157 0.0 3.0 0.00 0.00 0.00 95 1019.9
20260506144646 48 157 0.0 1.0 0.00 0.00 0.00 95 1019.8
20260506143029 46 157 0.0 3.0 0.00 0.00 0.00 95 1019.6
20260506141531 45 211 0.0 4.0 0.00 0.00 0.00 95 1019.5
20260506140028 43 247 0.0 4.0 0.00 0.00 0.00 94 1019.4
20260506134533 43 225 0.0 2.0 0.00 0.00 0.00 94 1019.1
20260506133029 43 203 1.0 3.0 0.00 0.00 0.00 94 1019.0
20260506131531 43 232 1.0 3.0 0.00 0.00 0.00 94 1018.8
20260506124532 42 212 2.0 4.0 0.00 0.00 0.00 94 1018.4
20260506123031 42 237 0.0 4.0 0.00 0.00 0.00 94 1018.3
20260506121530 42 229 2.0 5.0 0.00 0.00 0.00 94 1018.2
20260506120033 43 227 1.0 4.0 0.00 0.00 0.00 94 1018.1
20260506114529 43 219 1.0 3.0 0.00 0.00 0.00 94 1018.0
20260506113030 43 221 2.0 4.0 0.00 0.00 0.00 93 1018.0
20260506104531 44 221 1.0 3.0 0.00 0.00 0.00 93 1017.7
20260506103105 44 208 1.0 3.0 0.00 0.00 0.00 93 1017.6
20260506101529 44 247 1.0 3.0 0.00 0.00 0.00 93 1017.6
20260506100054 44 232 1.0 3.0 0.00 0.00 0.00 93 1017.6
20260506094532 45 223 2.0 3.0 0.00 0.00 0.00 93 1017.6
20260506093108 45 225 1.0 3.0 0.00 0.00 0.00 92 1017.5
20260506091531 45 225 1.0 2.0 0.00 0.00 0.00 92 1017.4
20260506090145 45 220 0.0 3.0 0.00 0.00 0.00 92 1017.4
20260506084530 46 220 1.0 3.0 0.00 0.00 0.00 92 1017.3
20260506083029 46 204 0.0 3.0 0.00 0.00 0.00 92 1017.2
20260506073032 47 212 0.0 5.0 0.00 0.00 0.00 90 1016.8
20260506071604 47 259 1.0 3.0 0.00 0.00 0.00 90 1016.7
20260506061646 49 337 0.0 0.0 0.00 0.00 0.00 88 1016.3
20260506050105 52 320 0.0 1.0 0.00 0.00 0.00 84 1015.9
20260506044530 53 64 0.0 3.0 0.00 0.00 0.00 82 1015.8
20260506043029 54 337 0.0 2.0 0.00 0.00 0.00 80 1015.6
20260506041531 56 22 0.0 0.0 0.00 0.00 0.00 78 1015.4
20260506040034 57 22 0.0 2.0 0.00 0.00 0.00 75 1015.2
20260506034604 59 32 0.0 4.0 0.00 0.00 0.00 73 1014.9
20260506033031 61 36 1.0 4.0 0.00 0.00 0.00 69 1014.7
20260506031529 63 51 1.0 5.0 0.00 0.00 0.00 65 1014.5
20260506030105 65 354 3.0 6.0 0.00 0.00 0.00 64 1014.4
20260506023029 68 28 3.0 6.0 0.00 0.00 0.00 60 1014.2
20260506021531 69 34 2.0 5.0 0.00 0.00 0.00 58 1014.2
20260506020036 70 337 1.0 4.0 0.00 0.00 0.00 56 1014.1
20260506014645 71 357 1.0 5.0 0.00 0.00 0.00 54 1014.0
20260506013031 71 345 2.0 7.0 0.00 0.00 0.00 54 1014.0
20260506011530 72 336 5.0 11.0 0.00 0.00 0.00 52 1013.8
20260506010030 73 324 6.0 13.0 0.00 0.00 0.00 50 1013.8
20260506003029 75 324 6.0 12.0 0.00 0.00 0.00 48 1013.8
20260506001603 76 326 6.0 13.0 0.00 0.00 0.00 48 1013.8
20260505234530 76 318 6.0 11.0 0.00 0.00 0.00 47 1014.0
20260505233032 77 325 6.0 12.0 0.00 0.00 0.00 46 1014.0
20260505231531 78 310 6.0 13.0 0.00 0.00 0.00 46 1014.1
20260505230030 78 317 5.0 12.0 0.00 0.00 0.00 45 1014.2
20260505224532 79 319 5.0 12.0 0.00 0.00 0.00 45 1014.3